Powrót do katalogu

STARLINK-35400

AktywnyŁącznośćVLEO
NORAD 66333·PAYLOAD·🇺🇸 United States

Wystrzelony Nov 6, 2025 z Cape Canaveral Space Force Station

Loading…

Następne Przeloty (najbliższe 24 godziny)

TLE

ŚwieżeSource: CelesTrak SupGP

Epoka: Sep 14, 2026, 22:53 UTC

1 66333C 25253Q   26257.95395833  .00009207  00000+0  33345-3 0  2570
2 66333  43.0003 224.0845 0001387 261.7861 141.2582 15.27574854    10

Śledź STARLINK-35400 w czasie rzeczywistym z AllMySat

Download on the App Store